Regional Weather Roundup
Issued by NWS Sterling, VA

Home | Current Version | Previous Version | Graphics & Text | Print | Product List | Glossary On
Versions: 1 2 3 4 5 6 7 8 9 10 11 12 13 14 15 16 17 18 19 20 21 22 23 24 25 26 27 28 29 30 31 32 33 34 35 36 37 38 39 40 41 42 43 44 45 46 47 48 49 50
000
ASUS41 KLWX 280510
RWRLWX

REGIONAL WEATHER ROUNDUP
NATIONAL WEATHER SERVICE BALTIMORE MD/WASHINGTON DC
1200 AM EST WED JAN 28 2015

Note: "FAIR" indicates few or no clouds below 12,000 feet
with no significant weather and/or obstructions to visibility.
 TC=TEMPERATURE CELSIUS

 * =Non NWS site. Station does not report precipitation (e.g. rain,
    snow, etc.), thunder, or fog.

DCZ001-MDZ009-015-VAZ040>042-051-053>054-280600-
WASHINGTON METRO

CITY           SKY/WX    TMP DP  RH WIND       PRES   REMARKS
WASHINGTON NAT PTCLDY    30  14  51 NW14      29.99R WCI  19
DULLES         PTCLDY    26  14  60 NW20G31   29.99R WCI  12
ANDREWS AFB    CLEAR     27  15  61 NW14      29.96R WCI  15
FT BELVOIR     CLEAR     28  15  57 NW13G26   30.00R WCI  17
QUANTICO       PTCLDY    29  14  53 N15G26    30.01R WCI  18
COLLEGE PARK*  CLEAR     28  18  64 NW9       29.98R WCI  20
LEESBURG*      CLEAR     28  19  69 NW23G30   30.01R WCI  14
MANASSAS*      CLEAR     27  18  69 NW15G21   30.01R WCI  15
GAITHERSBURG*  CLEAR     23  12  63 NW15      30.00R WCI  10

$$

MDZ006>007-011-014-280600-
BALTIMORE METRO

CITY           SKY/WX    TMP DP  RH WIND       PRES   REMARKS
BWI AIRPORT    PTCLDY    27  12  53 NW10G18   29.96R WCI  17
MD SCIENCE CTR   N/A     28   9  44 MISG      29.95R
MARTIN STATE   CLEAR     28  12  50 NW17G24   29.97R WCI  16
ANNAPOLIS      FAIR      30  15  53 NW17G25   29.96R WCI  18
FORT MEADE*    CLEAR     27  14  59 NW9       29.99R WCI  17

$$

MDZ012-015-019>023-280600-
MARYLAND EASTERN SHORE

CITY           SKY/WX    TMP DP  RH WIND       PRES   REMARKS
OCEAN CITY     CLEAR     29  17  61 NW12      29.88R WCI  19
SALISBURY      CLEAR     31  17  56 NW10      29.90R WCI  22
BAY BRIDGE AP*   N/A     30  14  51 NW21G28   29.96R WCI  17
CAMBRIDGE*     CLEAR     32  18  55 NW15G24   29.92R WCI  22
EASTON*        CLEAR     30  17  58 N15       29.96R WCI  19

$$

MDZ017>025-280600-
SOUTHERN MARYLAND

CITY           SKY/WX    TMP DP  RH WIND       PRES   REMARKS
PATUXENT RIVER CLEAR     30  17  58 NW20      29.95R WCI  17
ST INIGOES     CLEAR     30  15  53 NW9       29.95R WCI  22
LEONARDTOWN*   CLEAR     28  18  64 NW9G16    29.97R WCI  20

$$

MDZ003>005-280600-
NORTH CENTRAL MARYLAND

CITY           SKY/WX    TMP DP  RH WIND       PRES   REMARKS
FREDERICK*     CLEAR     28  10  47 NW10      30.04R WCI  19
HAGERSTOWN APT CLEAR     22  10  60 NW12G22   30.01R WCI  10
WESTMINSTER*   PTCLDY    23  10  58 NW9G17    29.95R WCI  13

$$

MDZ501>502-280600-
WESTERN MARYLAND

CITY           SKY/WX    TMP DP  RH WIND       PRES   REMARKS
OAKLAND*       CLOUDY    12 N/A N/A NW5       29.95R HAZE
CUMBERLAND*    CLEAR     25  12  58 NW10G21   30.12R WCI  15

$$

VAZ025>031-280600-
SHENANDOAH VALLEY

CITY           SKY/WX    TMP DP  RH WIND       PRES   REMARKS
WINCHESTER*    PTCLDY    27  14  59 NW20G28   30.02R WCI  13
FRONT ROYAL*   FAIR      27  14  59 CALM      30.02R
LURAY*         CLOUDY    28  19  69 N3        30.01R
NEW MARKET*    CLOUDY    21  16  81 CALM      30.01R
STAUNTON*      CLEAR     21  15  76 CALM      30.02R
WAYNESBORO*    FAIR      20  11  68 CALM      29.99R

$$

WVZ021-048>050-054>055-280600-
EASTERN WEST VIRGINIA PANHANDLE

CITY           SKY/WX    TMP DP  RH WIND       PRES   REMARKS
MARTINSBURG    PTCLDY    25  12  58 NW13      30.04R WCI  14
PETERSBURG*    PTCLDY    23  14  69 CALM      30.07R

$$

VAZ036>039-050-280600-
CENTRAL FOOTHILLS

CITY           SKY/WX    TMP DP  RH WIND       PRES   REMARKS
CHARLOTTESVILL PTCLDY    29  14  53 NW9       29.97R WCI  20
CULPEPER*      PTCLDY    30  16  55 N6        30.01R
ORANGE*        PTCLDY    28  23  80 CALM      30.00R
GORDONSVILLE*  CLOUDY    30  17  58 NW5       29.97R
WARRENTON*     FAIR      28  21  75 N6        30.00R

$$

VAZ055>057-280600-
NORTH AND CENTRAL PIEDMONT

CITY           SKY/WX    TMP DP  RH WIND       PRES   REMARKS
FREDERICKSBRG* PTCLDY    30  17  58 NW12G22   29.99R WCI  21
STAFFORD*      CLEAR     27  15  60 NW15      30.03R WCI  15

$$

NCZ024-NYZ072-PAZ021-071-VAZ022-071-280600-
OTHER REGIONAL OBSERVATIONS

CITY           SKY/WX    TMP DP  RH WIND       PRES   REMARKS
NEW YORK CITY  CLOUDY    20   6  55 N8        29.87R WCI  10
PHILADELPHIA   PTCLDY    22   6  50 NW20G25   29.93R WCI   7
PITTSBURGH     FLURRIES  16  11  80 NW10      30.13R WCI   4
ROANOKE        PTCLDY    22  10  60 NW15      30.06R WCI   9
RICHMOND       CLOUDY    32  20  61 N10       29.98R WCI  24
RALEIGH        PTCLDY    31  12  45 NW5G16    30.00R

$$

ANZ530>537-280600-
MARINE OBSERVATIONS

STATION/POSITION TIME  TEMP    WIND        PRES
                       AIR SEA DIR/SP/G
                 (UTC) (F)     (DEG/KT/KT) (MB)
THOMAS PT LIGHT  0500   29 36  330/ 16/ 18 1015.3R
BALT KEY BRIDGE  0500   29     310/ 20/ 23 1014.0R
COVE POINT       0500   29     340/ 25/ 29 1013.5R
LEWISETTA        0500   31 37  330/ 13/ 19 1014.1R
SOLOMONS ISLAND  0500      38                N/A
PINEY POINT      0500          350/ 22/ 24   N/A

$$



USA.gov is the U.S. government's official web portal to all federal, state and local government web resources and services.